Tracking 18945 objects as of 19-Jan-2018
HD Live streaming from Space Station
objects crossing your sky now

FENGYUN 1C DEB

Track FENGYUN 1C DEB now!
10-day predictions


NORAD ID: 38725
Int'l Code: 1999-025ETS
Perigee: 809.4 km
Apogee: 875.6 km
Inclination: 98.9 °
Period: 101.6 minutes
Semi major axis: 7213 km
RCS: 0.0015 m2 (small)
Launch date: May 10, 1999
Source: People's Republic of China (PRC)
Launch site: Taiyaun Space Center, China (TSC)

Note: This is SATELLITE DEBRIS
aabbcc
Your satellite tracking list
Your tracking list is empty




NASA's NSSDC Master Catalog

Two Line Element Set (TLE):
1 38725U 99025ETS 18018.38639685 +.00000822 +00000-0 +42712-3 0  9997
2 38725 098.9302 083.6553 0045905 293.0620 066.5718 14.17043271357775
Source of the keplerian elements: AFSPC